Regional Weather Roundup
Issued by NWS New Orleans/Baton Rouge, LA

Home | Current Version | Previous Version | Graphics & Text | Print | Product List | Glossary On
Versions: 1 2 3 4 5 6 7 8 9 10 11 12 13 14 15 16 17 18 19 20 21 22 23 24 25 26 27 28 29 30 31 32 33 34 35 36 37 38 39 40 41 42 43 44 45 46 47 48 49 50
310
ASUS44 KLIX 040210
RWRLIX
NEW ORLEANS REGIONAL WEATHER ROUNDUP
NATIONAL WEATHER SERVICE NEW ORLEANS LA
800 PM CST TUE MAR 03 2015

NOTE: "FAIR" INDICATES FEW OR NO CLOUDS BELOW 12,000 FEET WITH NO
      SIGNIFICANT WEATHER AND/OR OBSTRUCTIONS TO VISIBILITY.
      SKY/WX - SKY CONDITION AND SIGNIFICANT WEATHER.
      TMP - AIR TEMPERATURE.     DP    - DEWPOINT TEMPERATURE.
      RH  - RELATIVE HUMIDITY.   PRES  - PRESSURE.
      HI  - HEAT INDEX.          WCI   - WIND CHILL INDEX.

*  THESE STATIONS ARE NOT NWS OR FAA STATIONS AND ARE NOT UNDER
   NWS QUALITY CONTROL.

LAZ038-040-048-061>063-065>067-069-040300-
SOUTHEAST LOUISIANA

CITY           SKY/WX    TMP DP  RH WIND       PRES   REMARKS
N.O. AUDUBON     N/A    N/A N/A N/A MISG        N/A
N.O. INTL ARPT MOCLDY    71  65  81 S8        30.01R
N.O. LAKEFRONT MOCLDY    70  65  84 SE7       30.02R
SLIDELL        CLOUDY    68  66  93 SE10      30.02R
BATON ROUGE    PTCLDY    69  67  93 S7        29.98R
BOOTHVILLE     FOG       67  66  97 SE8       30.03S VSB 1
BELLE CHASSE   MOCLDY    72  65  78 SE6       30.01S
BOGALUSA*        N/A     70  65  83 S10G17    30.03R
GALLIANO*      CLOUDY    72  68  88 CALM      30.02S
NEW ROADS*       N/A     70  66  88 S7        29.97R
GONZALES*      MOCLDY    69  69 100 S3        29.99R
HAMMOND*       CLOUDY    72  64  78 SE8       30.02R
HOUMA*         CLEAR     71  68  91 SE8       30.00S
PORT FOURCHON* MOCLDY    70  66  88 SE5       30.05R

$$

MSZ070-080>082-040300-
SOUTHERN MISSISSIPPI

CITY           SKY/WX    TMP DP  RH WIND       PRES   REMARKS
MCCOMB         CLOUDY    68  65  90 S8        29.99S
GULFPORT       CLOUDY    65  63  93 SE10      30.04R
BILOXI         MOCLDY    66  66 100 SE9G16    30.04R
PASCAGOULA     MOCLDY    64  63  96 SE9       30.06R
STENNIS ARPT*  CLOUDY    66  63  88 SE8       30.04R

$$

COASTAL OBSERVATIONS
LAKE AND NEARSHORE STATIONS

STATION/POSITION TIME  TEMP    WIND        PRES    WAVE
                       AIR SEA DIR/SP/G            HT/PER
                 (UTC) (F)     (DEG/KT/KT) (MB)    (FT/S)
PASCAGOULA       0200   64     110/  7/ 12 1017.2
WAVELAND YACHT   0200   62 59  160/  7/ 10 1016.9
GRAND ISLE       0200   68 64  140/  5/  8 1016.9
SOUTHWEST PASS   0200   65 47  150/  5/  6 1017.1
NEW CANAL        0200   72     150/  3/  6 1016.6
SHELL BEACH      0200   68 63  140/ 10/ 14 1016.5

OFFSHORE STATIONS

STATION/POSITION TIME  TEMP    WIND        PRES    WAVE
                       AIR SEA DIR/SP/G            HT/PER
                 (UTC) (F)     (DEG/KT/KT) (MB)    (FT/S)
64 S DAUPHIN ISL 0137   71 71  140/ 19/ 21 1017.6    4/ 7

$$




USA.gov is the U.S. government's official web portal to all federal, state and local government web resources and services.